Meteo Giornale » Osservazioni meteo Filippine » Masbate
ore: 02:00 - Osservazioni Meteo Masbate
Lat. 12° 22' N Lon. 123° 37' E Alt. 6 metri s.l.m.
28 °C
Sereno
Temp. 24 Ore
27 °C
34 °C
Ovest/Sud-Ovest
14.8 Km/h
Dew point 22 °C
Umidità 69 %
Visibilità 10 Km
Il sole sorge alle ore 05:34
Il sole tramonta alle ore 17:56
| Data e Ora | Cielo e Fenomeni | T °C | DP °C | Um. % | Pres. hPa | Vis. km | Vento km/h | |
|---|---|---|---|---|---|---|---|---|
| Oggi h: 02:00 | Sereno | 28 | 22 | 69 | 1010 | 10 | O/SO 14.8 | |
| Oggi h: 01:00 | Sereno | 28 | 22 | 69 | 1010 | 10 | SO 13 | |
| Oggi h: 00:00 | Sereno | 28 | 22 | 69 | 1011 | 10 | O/SO 14.8 | |
| Ieri h: 23:00 | Sereno | 28 | 23 | 74 | 1011 | 9 | O/SO 16.7 | |
| Ieri h: 22:00 | Poco Nuvoloso | 29 | 24 | 74 | 1011 | 10 | O/SO 14.8 | |
| Ieri h: 21:00 | Poco Nuvoloso | 29 | 23 | 70 | 1011 | 10 | SO 9.3 | |
| Ieri h: 20:00 | Poco Nuvoloso | 30 | 23 | 66 | 1010 | 10 | O/SO 14.8 | |
| Ieri h: 19:00 | Poco Nuvoloso | 31 | 23 | 62 | 1009 | 10 | O/SO 11.1 | |
| Ieri h: 18:00 | Poco Nuvoloso | 31 | 23 | 62 | 1009 | 10 | O/SO 11.1 | |
| Ieri h: 17:00 | Poco Nuvoloso | 32 | 24 | 62 | 1008 | 10 | S/SO 18.5 | |
| Ieri h: 16:00 | Poco Nuvoloso | 33 | 23 | 55 | 1007 | 9 | S/SO 20.3 | |
| Ieri h: 15:00 | Sereno | 34 | 23 | 52 | 1007 | 10 | SO 27.8 | |
| Ieri h: 14:00 | Sereno | 34 | 23 | 52 | 1008 | 10 | SO 27.8 | |
| Ieri h: 13:00 | Poco Nuvoloso | 34 | 23 | 52 | 1009 | 10 | SO 22.2 | |
| Ieri h: 12:00 | Poco Nuvoloso | 33 | 24 | 59 | 1009 | 10 | SO 25.9 | |
| Ieri h: 11:00 | Poco Nuvoloso | 33 | 24 | 59 | 1010 | 10 | SO 24 | |
| Ieri h: 10:00 | Poco Nuvoloso | 32 | 25 | 66 | 1010 | 10 | SO 27.8 | |
| Ieri h: 09:00 | Poco Nuvoloso | 31 | 25 | 70 | 1010 | 10 | SO 22.2 | |
| Ieri h: 08:00 | Sereno | 31 | 25 | 70 | 1010 | 10 | SO 20.3 | |
| Ieri h: 07:00 | Poco Nuvoloso | 30 | 25 | 74 | 1010 | 10 | O/SO 20.3 | |
| Ieri h: 06:00 | Sereno | 27 | 23 | 78 | 1010 | 10 | SO 13 | |
| Ieri h: 05:00 | Sereno | 27 | 24 | 83 | 1009 | 10 | O/SO 11.1 | |
| Ieri h: 04:00 | Sereno | 28 | 23 | 74 | 1009 | 10 | SO 7.4 | |
| Ieri h: 03:00 | Sereno | 28 | 23 | 74 | 1009 | 10 | SO 11.1 | |



